Wind_Speed
28 34 41 46 52 59 65 60 56 52 60 68 60 54 52 53 54 51 49 38 27 14 1 14 16 19 20 24 9 19 7 1 3 5 4 4 3 4 4 5 7 8 6 4 4 4 7 5 4 4 2 9 20 24
16 25 35 44 50 50 48 61 54 55 58 66 63 57 54 54 52 47 39 40 35 16 1 2 5 11 25 32 22 24 8 12 9 4 3 3 1 1 3 2 6 4 5 4 4 2 2 4 4 5 9 18 17 28
26 29 13 7 20 39 41 51 46 47 65 65 62 57 56 52 49 49 42 31 27 11 5 7 11 13 16 28 25 11 8 18 11 13 3 2 2 1 1 4 4 1 2 3 3 4 6 5 7 8 13 16 17 23
37 37 39 42 38 43 50 47 49 54 59 60 57 57 52 49 46 46 44 27 24 15 3 4 10 13 8 19 17 15 18 21 15 14 2 2 2 4 0 1 3 4 6 6 2 5 7 7 12 17 18 17 18 20
37 43 46 47 48 47 48 50 50 50 56 55 53 51 49 45 44 46 47 21 26 10 5 6 11 6 16 16 15 19 18 18 13 4 2 2 3 3 1 2 2 3 5 4 5 17 7 13 21 20 21 21 21 25
50 40 46 40 44 43 46 48 47 48 50 51 49 46 45 42 45 36 17 20 21 20 10 3 7 8 13 11 13 16 16 15 12 5 3 4 3 2 2 2 3 4 3 5 4 10 5 22 24 22 22 23 21 22
53 56 43 47 46 47 46 46 46 48 50 47 47 44 44 44 43 18 7 23 26 17 8 4 2 8 17 17 12 11 13 10 5 4 3 5 5 5 1 2 6 5 3 9 14 18 18 27 19 22 22 22 19 21
49 52 56 55 44 43 48 48 48 53 52 49 49 48 45 38 26 21 29 36 29 13 8 3 3 5 14 10 4 7 4 4 1 3 6 4 8 3 2 5 11 9 13 16 15 2 14 22 25 23 24 24 24 23
43 46 49 53 54 59 57 52 58 59 58 59 59 48 39 32 21 31 32 25 9 6 7 4 4 3 8 10 7 5 4 2 1 1 2 8 2 3 6 18 18 19 16 14 12 7 21 26 27 27 26 25 26 26
42 41 43 43 44 54 58 59 64 63 55 51 37 16 11 20 39 31 18 8 3 3 4 3 9 3 17 8 4 4 3 3 1 3 5 2 2 4 5 10 14 20 14 15 19 22 23 24 27 27 26 25 27 28
32 37 35 34 37 37 37 40 37 33 30 18 9 12 35 25 15 5 4 4 4 2 3 6 19 8 17 4 3 4 2 1 2 3 4 2 1 3 12 11 11 18 12 16 18 20 24 26 28 27 25 24 25 25
28 26 28 29 28 28 29 28 28 21 11 21 35 26 15 5 4 4 1 1 3 4 5 6 16 16 6 7 4 1 2 3 1 1 3 2 1 13 14 15 14 10 13 13 16 20 21 23 24 25 24 23 26 26
26 27 27 25 25 23 23 21 20 31 44 25 11 5 3 4 5 4 4 2 3 3 11 18 5 6 4 4 4 3 3 2 4 3 3 2 9 9 10 12 12 11 13 13 17 21 21 22 22 24 24 24 25 24
23 22 25 25 25 25 26 27 29 32 8 7 5 5 3 3 2 1 2 3 4 18 25 21 6 4 4 4 1 4 2 2 1 1 2 2 10 10 12 14 16 14 12 11 16 17 20 23 23 22 23 25 23 21
20 19 18 22 18 16 19 18 13 7 7 6 6 4 4 1 4 5 8 19 27 27 21 13 7 6 2 3 2 3 1 3 4 2 2 5 8 13 16 17 17 16 15 15 16 18 21 21 22 22 22 21 18 18
16 21 21 17 15 13 12 12 13 11 6 6 8 5 5 6 6 13 17 19 19 16 13 8 3 3 0 4 2 4 5 1 2 2 4 5 8 10 14 15 15 14 13 16 16 17 18 19 19 19 19 18 17 18
19 21 16 15 14 10 5 10 10 9 7 5 4 13 9 7 12 16 14 9 7 5 1 3 3 2 1 1 2 3 2 2 4 4 3 4 8 11 12 14 15 13 13 14 14 15 16 16 16 17 19 19 19 19
23 15 10 11 15 20 20 14 7 8 8 11 6 13 19 17 14 15 17 11 6 3 3 1 4 2 2 2 1 2 5 7 6 4 4 6 9 11 12 13 14 14 14 13 13 14 15 16 16 17 18 20 21 20
18 15 11 10 10 8 7 9 8 6 10 8 11 12 11 10 9 9 11 10 8 5 3 1 4 2 2 4 6 7 9 6 8 6 7 8 9 11 13 12 13 15 15 13 12 12 12 13 14 16 18 21 20 20
12 10 11 10 5 7 6 7 7 7 5 5 8 11 7 6 9 10 7 7 5 3 7 3 3 4 7 10 7 9 9 11 10 11 8 8 9 11 13 14 15 15 14 13 13 12 13 15 13 14 17 19 19 19
13 14 12 12 19 13 8 5 6 5 6 6 7 5 4 7 5 8 8 12 8 5 3 7 13 12 10 10 9 12 11 6 2 1 2 11 12 11 11 12 13 15 16 16 15 14 15 17 16 13 15 17 14 13
16 10 12 12 9 6 7 9 6 5 5 6 5 3 4 3 4 5 8 8 5 9 6 12 9 11 11 10 10 7 6 5 4 4 4 6 13 10 13 12 11 14 14 14 14 14 15 17 15 13 14 16 14 17
10 10 8 10 7 6 3 6 3 3 3 4 4 3 2 2 3 2 2 4 5 8 6 7 8 6 6 7 7 9 9 7 4 6 6 5 7 6 10 10 8 10 9 10 10 10 16 16 14 14 20 19 19 18
11 6 6 6 7 3 3 3 3 3 4 2 2 3 2 2 3 1 2 5 8 6 9 9 5 10 10 8 6 8 7 4 4 7 5 6 7 7 7 7 9 10 9 10 10 11 18 18 15 17 20 20 20 20
5 8 5 4 5 3 3 3 4 3 2 1 2 2 2 2 1 2 2 3 4 1 3 6 5 6 7 6 4 5 4 3 3 3 4 4 6 6 7 8 9 10 11 13 14 15 19 20 18 18 21 22 20 17
5 8 5 3 4 3 2 2 2 2 2 2 3 2 2 1 3 2 3 3 3 2 3 6 5 5 5 4 5 2 3 3 3 4 2 5 5 6 7 8 10 11 11 13 13 16 20 20 19 20 22 19 16 19
4 4 5 5 4 3 3 4 5 3 2 2 2 1 2 2 1 3 3 3 2 3 4 6 5 5 4 3 4 6 5 4 6 5 5 5 7 7 6 5 8 10 13 14 13 14 17 19 18 20 19 18 16 17
4 8 3 4 4 7 2 2 1 1 1 3 4 1 2 1 2 2 1 4 4 4 4 5 6 4 4 3 4 3 3 4 5 4 4 5 6 7 6 6 6 6 6 13 13 13 14 17 20 19 19 20 18 15
3 3 2 3 3 3 4 2 3 4 4 5 2 2 3 3 4 4 3 3 3 4 2 2 2 2 3 2 2 1 2 3 2 4 1 3 4 5 7 8 8 7 12 13 12 13 14 17 18 18 17 16 15 13
3 3 3 1 2 1 2 3 2 3 3 2 2 2 1 3 3 4 3 2 2 3 3 3 3 1 1 1 1 5 7 7 6 5 9 3 2 8 8 8 9 11 12 14 15 15 14 14 15 15 14 13 11 10
2 1 2 2 1 2 2 6 5 5 3 1 1 3 1 3 4 6 7 8 9 8 8 6 5 5 5 5 5 5 7 10 9 7 5 4 4 7 9 10 10 11 11 11 12 12 13 13 12 12 11 9 9 8
1 2 3 1 3 3 5 4 3 2 3 2 2 3 2 2 3 2 2 1 3 5 4 4 4 6 6 7 7 7 5 4 5 6 5 5 6 9 11 12 12 12 12 12 12 12 11 10 9 9 9 8 7 5
1 2 3 3 2 1 1 4 2 2 3 2 1 2 2 1 2 0 2 1 5 6 5 6 7 6 6 7 7 7 7 6 7 6 5 7 9 11 12 12 12 13 12 11 10 10 10 9 8 8 7 6 5 4
Wind_Direction
291 277 263 254 244 239 230 225 223 219 211 206 208 202 199 198 201 204 211 210 214 209 296 227 227 190 176 170 161 157 98 310 113 169 194 188 205 233 153 196 171 168 165 186 194 231 244 84 114 198 196 128 158 157
309 300 277 255 239 229 227 212 213 208 204 197 197 195 195 193 198 200 208 213 196 239 164 167 128 208 207 179 152 165 144 158 160 162 203 178 0 35 171 228 169 174 182 176 171 191 127 39 96 143 164 151 150 165
10 360 356 254 187 195 190 186 187 188 181 186 188 188 189 191 195 198 199 210 215 157 97 123 87 121 145 180 178 151 145 182 179 187 161 126 141 154 250 216 109 67 134 113 108 186 170 120 142 160 170 165 161 165
46 51 65 91 117 142 150 160 162 168 172 175 179 184 187 190 193 192 196 195 181 148 100 51 120 110 129 165 171 170 172 199 187 190 103 126 168 31 218 243 117 197 143 129 84 136 138 201 166 158 152 160 156 158
64 73 84 98 116 125 141 148 152 158 169 171 174 179 182 185 184 190 200 194 173 139 133 105 114 141 133 133 168 201 195 165 154 113 108 166 149 79 343 30 166 182 177 161 214 189 171 174 166 169 158 155 161 158
77 81 94 100 114 117 126 139 150 154 163 167 168 171 172 175 174 175 191 180 152 160 107 98 99 156 159 154 167 151 165 174 174 131 130 142 112 131 168 215 142 126 139 84 181 190 172 170 169 171 162 160 164 162
75 85 96 105 109 114 123 131 139 149 152 155 159 161 161 164 169 181 168 175 148 148 85 97 92 167 162 167 158 170 177 178 190 144 124 146 141 188 212 232 150 189 173 147 162 141 131 161 161 171 168 160 158 160
70 79 92 107 112 114 122 122 129 135 138 144 148 149 149 155 145 130 130 131 129 115 112 122 144 152 148 134 123 155 145 150 138 122 134 132 140 198 249 150 159 165 149 159 167 271 190 174 167 161 159 159 159 159
74 81 84 93 108 116 125 131 131 134 138 138 133 127 122 128 124 141 142 140 159 153 137 143 134 155 166 173 140 140 165 49 135 113 158 133 187 209 218 170 182 176 173 179 174 175 159 167 163 161 163 163 162 164
78 80 87 92 99 106 111 114 121 121 120 120 116 96 102 128 130 130 146 141 60 48 108 110 125 142 166 145 151 133 153 154 141 243 123 109 233 161 166 188 185 177 180 177 163 158 162 162 167 168 169 169 171 170
88 86 92 95 96 100 108 115 115 115 118 130 82 95 131 133 124 94 120 149 140 75 77 120 140 132 162 114 152 144 186 189 116 250 128 238 251 159 151 156 163 165 179 181 200 183 181 177 174 173 171 173 177 180
88 93 90 102 112 115 124 128 139 142 112 121 119 115 114 108 112 95 110 20 74 147 164 128 134 126 96 113 101 150 110 42 175 245 77 279 210 144 147 151 160 168 171 177 183 181 178 181 179 178 175 177 180 184
85 89 91 95 111 121 125 132 134 123 124 121 114 82 67 10 58 117 168 83 104 156 145 142 112 114 103 87 65 77 83 194 111 56 212 200 147 155 165 159 157 162 168 164 174 176 182 179 180 179 177 179 181 186
78 89 90 94 110 112 118 123 128 134 105 63 58 41 57 46 33 315 39 113 126 125 130 119 82 105 96 60 128 87 260 82 68 200 165 166 149 165 179 179 165 169 171 169 178 184 182 178 177 180 185 185 190 190
79 83 92 82 96 104 116 119 146 148 71 64 40 62 50 3 21 20 82 107 124 126 119 99 64 71 50 84 108 105 150 206 201 165 108 129 161 178 175 179 181 180 182 189 186 182 182 183 184 184 188 194 199 192
92 85 68 69 75 114 97 99 92 79 64 61 45 57 105 102 61 67 84 96 118 117 101 85 91 73 324 147 108 203 168 137 133 75 150 182 183 190 185 183 182 184 193 189 185 186 186 188 191 192 191 198 192 196
82 55 48 66 66 89 85 71 53 54 55 56 58 69 72 46 59 56 55 59 100 83 79 101 76 176 138 82 102 27 85 98 137 143 173 187 190 190 188 185 185 186 183 186 187 189 192 194 196 196 194 187 187 188
57 50 46 46 82 86 76 54 71 62 53 59 63 59 65 68 62 45 52 72 77 66 38 128 127 101 136 122 50 123 117 131 125 124 133 154 172 181 185 190 190 188 188 188 192 196 198 199 198 195 190 185 181 181
46 46 44 45 64 77 59 42 47 78 59 74 95 88 80 67 64 54 62 66 77 83 95 92 60 66 77 72 97 122 145 154 145 131 135 148 166 178 184 194 192 196 198 198 196 194 190 193 195 191 187 186 186 183
41 48 52 41 60 72 70 41 54 75 59 61 66 67 70 71 43 53 53 46 29 34 41 50 45 61 95 106 124 143 141 140 130 124 138 163 175 183 185 188 195 200 200 199 200 198 186 180 191 193 194 192 190 188
54 55 63 70 54 67 77 63 62 71 81 72 69 74 74 79 47 37 27 19 42 34 71 101 107 111 112 105 112 117 115 120 163 346 164 177 181 186 186 194 201 204 206 205 204 201 196 191 199 193 191 193 188 188
30 50 49 49 64 68 67 46 82 86 79 96 73 66 36 37 25 15 355 30 63 37 71 110 120 119 114 121 127 144 139 163 179 164 152 159 163 182 182 195 202 201 205 210 210 209 196 194 201 193 186 180 176 175
36 46 50 37 66 54 44 33 77 41 93 128 145 107 62 60 342 14 99 82 83 67 94 107 113 135 134 117 120 125 121 120 105 110 113 129 171 181 193 198 202 201 203 206 212 203 186 197 198 182 178 187 186 182
30 49 37 42 51 77 50 43 72 66 51 28 99 98 76 36 343 288 73 68 104 119 115 98 96 99 104 104 94 104 106 128 140 137 142 174 180 191 205 210 207 213 221 213 208 188 189 197 195 190 194 193 193 192
44 19 37 20 38 52 43 33 4 54 114 102 49 86 59 342 345 45 85 95 92 69 66 112 107 112 132 134 126 111 113 105 150 163 213 216 214 199 210 215 212 217 221 213 203 194 195 197 196 197 199 195 190 199
66 25 39 32 356 62 16 65 43 63 70 55 56 48 340 22 53 49 62 80 118 108 105 113 105 126 126 143 172 202 193 177 202 227 222 214 221 239 232 211 209 206 211 217 210 203 201 199 196 199 197 197 203 199
53 22 42 33 24 84 64 53 27 61 63 100 134 134 67 63 124 92 125 77 140 140 147 146 138 136 161 195 230 232 219 228 224 236 221 220 221 220 221 221 214 212 209 201 212 211 202 199 199 193 194 197 200 201
50 34 75 16 33 18 75 56 134 174 279 79 119 119 139 134 79 110 166 145 133 125 121 139 150 159 172 206 235 208 208 200 202 216 231 224 214 204 205 208 203 208 197 187 199 200 199 194 192 192 194 191 192 203
71 50 66 45 30 25 13 23 19 48 18 13 81 34 63 84 115 135 142 135 126 128 90 26 42 176 197 199 206 244 171 133 118 129 86 22 152 156 178 187 190 179 170 174 181 185 186 191 193 194 195 199 203 209
71 15 343 72 83 340 70 42 48 329 25 47 88 115 119 113 151 180 187 205 176 198 213 234 265 282 309 303 204 154 158 190 209 210 230 250 167 175 171 165 161 163 168 174 173 172 179 184 187 191 194 195 202 209
50 47 312 314 37 64 328 321 333 328 321 356 253 201 227 203 246 274 274 262 250 239 240 239 239 227 228 235 247 214 217 224 216 210 222 216 210 187 171 164 163 164 168 172 174 172 170 172 176 181 186 193 196 198
142 239 295 292 92 11 7 7 330 299 287 253 272 223 225 236 200 267 337 178 135 120 177 211 182 195 222 223 225 233 245 258 215 196 202 204 176 152 151 158 162 167 167 168 168 166 168 176 180 183 186 185 187 195
230 307 326 325 293 221 359 357 272 284 229 218 150 71 86 69 94 276 355 172 205 198 196 192 192 200 221 240 239 226 218 212 194 178 164 159 160 159 160 161 159 160 162 163 167 171 171 174 175 172 173 180 181 179
Height
1193 1181 1172 1166 1168 1174 1189 1207 1224 1239 1256 1280 1298 1315 1329 1342 1355 1366 1373 1382 1389 1394 1392 1392 1395 1397 1402 1408 1416 1425 1434 1440 1442 1450 1450 1448 1452 1448 1448 1448 1451 1456 1469 1471 1471 1468 1462 1460 1463 1465 1463 1462 1464 1469
1175 1162 1145 1134 1136 1147 1163 1188 1209 1227 1245 1268 1289 1307 1324 1337 1351 1364 1372 1379 1389 1389 1392 1392 1390 1395 1395 1402 1408 1418 1423 1429 1435 1441 1442 1443 1447 1447 1445 1443 1443 1453 1452 1458 1460 1464 1462 1462 1462 1461 1461 1462 1465 1468
1169 1142 1119 1105 1107 1132 1154 1181 1202 1219 1240 1263 1284 1304 1320 1334 1348 1358 1370 1377 1385 1385 1392 1395 1396 1396 1399 1404 1408 1417 1422 1427 1429 1432 1434 1438 1444 1442 1445 1442 1444 1447 1447 1455 1461 1463 1462 1462 1462 1462 1462 1463 1466 1469
1171 1150 1132 1121 1128 1144 1167 1188 1207 1226 1246 1266 1285 1304 1320 1333 1346 1359 1367 1376 1380 1385 1394 1399 1397 1400 1406 1405 1410 1414 1420 1423 1428 1431 1433 1437 1440 1437 1443 1441 1444 1446 1448 1453 1460 1460 1461 1461 1462 1462 1463 1464 1468 1472
1184 1174 1164 1161 1165 1175 1188 1204 1221 1237 1255 1273 1290 1306 1321 1335 1349 1361 1370 1370 1376 1384 1393 1400 1402 1405 1405 1408 1413 1416 1421 1422 1425 1429 1433 1437 1436 1439 1440 1441 1447 1442 1445 1451 1454 1448 1451 1455 1459 1461 1463 1466 1469 1470
1201 1196 1191 1190 1194 1200 1209 1221 1235 1250 1265 1281 1296 1311 1325 1338 1351 1362 1371 1366 1375 1383 1387 1403 1407 1408 1408 1412 1416 1417 1419 1422 1425 1427 1431 1433 1435 1438 1444 1445 1441 1442 1442 1442 1443 1445 1449 1452 1457 1460 1463 1467 1470 1473
1220 1216 1215 1216 1218 1222 1229 1238 1249 1262 1276 1290 1305 1318 1331 1342 1352 1360 1357 1361 1374 1379 1388 1404 1409 1410 1411 1414 1416 1418 1420 1421 1424 1427 1428 1431 1434 1437 1438 1445 1440 1441 1442 1443 1443 1446 1453 1453 1456 1460 1464 1469 1473 1476
1242 1236 1235 1236 1239 1243 1250 1257 1265 1277 1288 1300 1314 1328 1340 1351 1355 1363 1367 1369 1377 1385 1391 1401 1407 1409 1409 1411 1415 1418 1419 1421 1422 1423 1427 1430 1433 1434 1443 1438 1438 1441 1442 1444 1445 1446 1447 1452 1456 1459 1464 1469 1472 1475
1263 1260 1258 1257 1258 1262 1268 1275 1282 1291 1302 1313 1323 1335 1344 1352 1359 1366 1372 1377 1381 1386 1389 1393 1399 1408 1407 1412 1414 1417 1419 1424 1422 1423 1424 1427 1432 1436 1430 1432 1435 1437 1439 1441 1445 1446 1448 1450 1455 1459 1464 1468 1472 1476
1284 1282 1281 1281 1282 1285 1288 1293 1298 1307 1316 1325 1333 1341 1351 1359 1364 1369 1377 1378 1379 1381 1384 1388 1392 1400 1405 1408 1413 1417 1417 1423 1429 1425 1422 1428 1431 1427 1427 1429 1432 1435 1438 1440 1443 1447 1449 1451 1455 1458 1462 1468 1471 1474
1299 1300 1301 1301 1302 1305 1308 1313 1317 1322 1328 1333 1336 1343 1354 1360 1365 1369 1375 1378 1380 1385 1385 1388 1390 1395 1405 1409 1413 1413 1419 1419 1426 1426 1428 1430 1431 1427 1428 1430 1432 1435 1438 1440 1442 1444 1447 1450 1454 1458 1462 1467 1470 1474
1311 1311 1312 1314 1317 1320 1323 1326 1329 1332 1334 1339 1344 1353 1359 1364 1367 1370 1375 1375 1376 1384 1384 1388 1393 1398 1402 1406 1410 1413 1418 1421 1426 1420 1429 1433 1428 1427 1429 1432 1434 1437 1438 1440 1442 1445 1448 1451 1454 1458 1462 1466 1469 1472
1321 1321 1322 1323 1325 1327 1330 1332 1335 1337 1341 1346 1350 1355 1360 1365 1371 1373 1379 1379 1382 1379 1382 1387 1395 1399 1404 1407 1410 1415 1422 1428 1420 1434 1431 1427 1425 1428 1430 1432 1435 1437 1439 1440 1443 1445 1447 1451 1455 1457 1460 1465 1469 1473
1330 1330 1330 1330 1332 1334 1336 1338 1340 1342 1345 1351 1356 1366 1368 1371 1375 1372 1372 1373 1376 1378 1384 1389 1394 1399 1404 1409 1413 1422 1423 1422 1433 1435 1420 1424 1425 1428 1430 1432 1435 1438 1440 1442 1443 1446 1448 1450 1453 1457 1460 1464 1468 1471
1337 1337 1337 1337 1339 1341 1342 1344 1346 1346 1350 1358 1362 1373 1378 1378 1376 1374 1373 1375 1380 1385 1388 1392 1397 1402 1408 1413 1414 1422 1425 1430 1425 1424 1423 1425 1426 1428 1429 1432 1434 1437 1440 1442 1443 1445 1448 1451 1454 1457 1460 1464 1467 1471
1343 1342 1342 1344 1344 1345 1346 1347 1346 1348 1357 1365 1373 1378 1380 1379 1379 1379 1380 1383 1387 1389 1392 1395 1402 1410 1413 1412 1414 1419 1417 1421 1421 1423 1424 1425 1426 1428 1429 1432 1434 1437 1439 1441 1444 1446 1449 1451 1454 1457 1460 1463 1466 1470
1347 1347 1349 1349 1348 1348 1348 1347 1351 1359 1368 1375 1382 1382 1382 1382 1383 1386 1387 1389 1390 1392 1396 1397 1405 1407 1407 1412 1411 1414 1418 1420 1422 1423 1424 1425 1426 1427 1430 1432 1435 1437 1439 1441 1444 1446 1449 1451 1454 1457 1459 1462 1466 1470
1352 1354 1353 1352 1351 1351 1351 1355 1363 1373 1381 1386 1386 1388 1388 1389 1390 1391 1392 1392 1393 1394 1396 1398 1399 1403 1414 1410 1418 1417 1420 1422 1422 1423 1423 1424 1426 1428 1430 1433 1435 1437 1439 1442 1444 1446 1448 1450 1453 1456 1459 1462 1465 1469
1358 1357 1357 1356 1354 1354 1361 1369 1373 1383 1390 1391 1393 1395 1396 1397 1397 1397 1395 1395 1396 1397 1397 1398 1403 1410 1413 1413 1416 1418 1420 1421 1422 1423 1424 1425 1427 1429 1431 1433 1435 1437 1439 1441 1443 1445 1447 1450 1452 1455 1458 1461 1464 1468
1362 1361 1359 1358 1358 1361 1371 1379 1382 1387 1394 1397 1398 1399 1401 1402 1401 1400 1399 1398 1398 1398 1401 1407 1411 1413 1414 1416 1417 1418 1419 1421 1422 1423 1425 1427 1428 1429 1431 1432 1434 1436 1438 1440 1442 1444 1447 1449 1451 1454 1457 1460 1463 1466
1365 1364 1363 1362 1362 1368 1379 1385 1389 1394 1397 1400 1402 1403 1404 1404 1404 1403 1402 1401 1401 1405 1410 1413 1415 1416 1418 1418 1419 1420 1421 1423 1423 1423 1424 1426 1428 1430 1431 1432 1434 1436 1438 1439 1441 1443 1445 1447 1449 1453 1456 1459 1463 1466
1370 1369 1368 1368 1373 1380 1387 1392 1394 1397 1401 1404 1405 1406 1407 1408 1408 1408 1407 1406 1411 1414 1415 1416 1417 1418 1420 1421 1421 1422 1423 1424 1424 1424 1424 1425 1427 1429 1431 1432 1433 1435 1436 1438 1440 1442 1445 1447 1449 1453 1456 1459 1462 1465
1374 1373 1375 1378 1381 1388 1397 1395 1397 1400 1402 1405 1406 1407 1410 1411 1411 1410 1410 1412 1417 1419 1419 1419 1420 1421 1421 1422 1423 1423 1424 1425 1425 1425 1426 1427 1429 1430 1431 1433 1434 1435 1437 1438 1440 1442 1444 1446 1450 1453 1455 1458 1461 1464
1379 1380 1384 1387 1391 1396 1398 1398 1399 1402 1403 1404 1406 1408 1411 1412 1412 1411 1410 1416 1420 1420 1421 1421 1422 1422 1423 1424 1424 1425 1425 1426 1426 1427 1427 1428 1429 1430 1432 1433 1434 1435 1437 1438 1440 1442 1444 1446 1449 1452 1454 1457 1460 1463
1387 1394 1394 1397 1397 1399 1401 1402 1403 1403 1408 1407 1408 1411 1413 1413 1412 1413 1413 1420 1421 1422 1421 1422 1422 1423 1424 1425 1425 1426 1426 1426 1427 1427 1427 1428 1429 1430 1431 1431 1433 1434 1435 1437 1439 1441 1443 1445 1448 1450 1453 1456 1459 1461
1399 1400 1402 1401 1402 1403 1403 1408 1407 1407 1408 1410 1412 1414 1413 1413 1416 1417 1419 1421 1422 1422 1422 1423 1423 1424 1424 1425 1425 1426 1426 1426 1426 1426 1427 1427 1428 1429 1429 1430 1431 1433 1434 1435 1437 1439 1441 1444 1447 1449 1452 1455 1457 1459
1406 1406 1405 1405 1405 1405 1407 1408 1408 1409 1412 1413 1414 1414 1415 1421 1420 1420 1421 1421 1421 1421 1421 1422 1423 1424 1424 1425 1425 1425 1425 1425 1425 1426 1426 1426 1427 1427 1428 1429 1430 1432 1433 1434 1436 1438 1441 1443 1446 1449 1451 1454 1456 1459
1407 1408 1409 1410 1408 1408 1409 1409 1411 1412 1410 1410 1412 1416 1417 1418 1419 1421 1421 1421 1421 1421 1421 1421 1422 1423 1423 1424 1423 1423 1423 1424 1424 1425 1425 1425 1426 1426 1427 1428 1429 1430 1431 1433 1435 1437 1440 1442 1444 1447 1450 1453 1456 1458
1410 1411 1412 1412 1411 1411 1411 1411 1411 1412 1413 1412 1413 1414 1416 1418 1420 1420 1420 1420 1421 1421 1422 1422 1422 1422 1422 1422 1422 1422 1423 1424 1425 1425 1425 1425 1425 1426 1426 1427 1428 1429 1431 1433 1435 1437 1440 1442 1445 1448 1450 1453 1455 1457
1413 1413 1413 1413 1414 1413 1414 1415 1415 1415 1414 1415 1415 1417 1417 1418 1419 1419 1419 1420 1420 1421 1421 1422 1422 1422 1422 1422 1422 1423 1424 1424 1425 1425 1425 1425 1426 1426 1426 1428 1429 1430 1432 1434 1436 1438 1441 1444 1446 1448 1451 1453 1454 1456
1415 1415 1414 1414 1413 1414 1415 1414 1413 1413 1413 1414 1415 1416 1417 1417 1418 1418 1418 1417 1418 1419 1419 1420 1420 1420 1421 1421 1421 1422 1422 1423 1423 1424 1424 1425 1425 1426 1427 1429 1431 1432 1434 1436 1438 1440 1442 1444 1446 1448 1450 1452 1453 1455
1415 1415 1414 1413 1414 1415 1414 1414 1414 1414 1414 1414 1414 1414 1415 1416 1417 1417 1416 1416 1416 1417 1418 1418 1418 1419 1419 1419 1420 1420 1421 1421 1422 1423 1424 1424 1425 1427 1428 1430 1432 1434 1436 1438 1440 1442 1443 1445 1447 1449 1450 1451 1453 1454
1414 1415 1415 1415 1414 1414 1415 1415 1413 1413 1413 1413 1413 1413 1414 1415 1416 1418 1417 1416 1417 1416 1416 1417 1417 1417 1418 1418 1419 1420 1420 1421 1422 1423 1424 1425 1427 1428 1430 1432 1434 1436 1438 1440 1441 1443 1444 1446 1447 1449 1450 1451 1452 1453